Home > Weather > Qikiqtarjuaq > Past weeks

Flag for Canada Past Weather in Qikiqtarjuaq, Nunavut, Canada — Yesterday and Last 2 Weeks

Now
41 °F

Low clouds.


Feels Like: 41 °F
Forecast: 42 / 46 °F
Wind: 2 mph from East

Location: Broughton Island Airport

Current Time: Aug 28, 2016 at 8:26:21 PM

Latest Report: Aug 28, 2016 at 8:00 PM


Visibility: 9 mi

Pressure: 30.19 "Hg

Humidity: 100%

Dew Point: 41 °F

Location of QikiqtarjuaqLocation

Past Weather in Qikiqtarjuaq — Graph

°F

Qikiqtarjuaq Temperature Yesterday

Maximum temperature yesterday: 43 °F (at 1:00 PM)
Minimum temperature yesterday: 36 °F (at 12:00 AM)
Average temperature yesterday: 39 °F

High & Low Weather Summary for the Past Weeks

 TemperatureHumidityPressure
High61 °F (Aug 18, 4:00 PM)100% (Aug 13, 7:00 PM)30.21 "Hg (Aug 13, 7:00 PM)
Low34 °F (Aug 22, 12:00 AM)55% (Aug 17, 6:00 PM)29.64 "Hg (Aug 18, 2:00 AM)
Average42 °F91%29.85 "Hg
* Reported Aug 13 7:00 PM — Aug 28 7:00 PM, Qikiqtarjuaq, Weather by CustomWeather, © 2016

Note: Actual official high and low records may vary slightly from our data, if they occured in-between our weather recording intervals... More about our weather records

Advertising

Qikiqtarjuaq Weather History for the Previous 24 Hours

Scroll right to see more
 ConditionsComfort  
Time TempWeatherWind HumidityBarometerVisibility
7:00 PM
Sun, Aug 28
41 °FLow clouds.3 mph93%30.19 "Hg9 mi
6:00 PM41 °FLow clouds.5 mph93%30.19 "Hg9 mi
5:00 PM43 °FOvercast.6 mph93%30.19 "Hg9 mi
4:00 PM43 °FOvercast.3 mph87%30.19 "Hg9 mi
3:00 PM41 °FOvercast.5 mph93%30.19 "Hg9 mi
2:00 PM43 °FMostly cloudy.3 mph87%30.19 "Hg9 mi
1:01 PM43 °FOvercast.5 mph87%30.19 "Hg9 mi
12:00 PM41 °FLow clouds.5 mph93%30.20 "Hg15 mi
11:00 AM41 °FLow clouds.5 mph93%30.20 "Hg15 mi
10:50 AM41 °FLow clouds.5 mph93%30.20 "Hg15 mi
10:00 AM39 °FDrizzle. Mostly cloudy.6 mph100%30.20 "Hg12 mi
9:00 AM41 °FDrizzle. Mostly cloudy.5 mph93%30.20 "Hg10 mi
8:00 AM41 °FPartly sunny.2 mph93%30.20 "Hg15 mi
7:46 AM41 °FPartly sunny.No wind93%30.21 "Hg15 mi
7:00 AM39 °FOvercast.2 mph93%30.21 "Hg15 mi
6:00 AM37 °FLow clouds.No wind100%30.19 "Hg15 mi
5:00 AM37 °FLow clouds.5 mph100%30.18 "Hg9 mi
4:00 AM37 °FFog.2 mph100%30.18 "Hg0 mi
3:00 AM37 °FFog.3 mph100%30.18 "Hg0 mi
2:00 AM37 °FFog.3 mph100%30.18 "Hg0 mi
1:00 AM37 °FFog.5 mph100%30.17 "Hg1 mi
12:00 AM37 °FFog.3 mph100%30.16 "Hg1 mi
11:00 PM
Sat, Aug 27
37 °FFog.5 mph100%30.16 "Hg1 mi
10:00 PM37 °FFog.3 mph100%30.15 "Hg1 mi
9:00 PM37 °FFog.5 mph100%30.15 "Hg1 mi
8:00 PM39 °FFog.6 mph100%30.14 "Hg0 mi
Weather by CustomWeather, © 2016

See weather overviewHow to use our weather pages